Torna al catalogo

STARLINK-36716

AttivoComunicazioniSSO
NORAD 67699·PAYLOAD·🇺🇸 United States

Lanciato Feb 7, 2026 da Vandenberg Space Force Base

Loading…

Prossimi Passaggi (prossime 24 ore)

TLE

AggiornatoSource: CelesTrak SupGP

Epoca: Sep 15, 2026, 03:45 UTC

1 67699C 26025G   26258.15673611 -.00012877  00000+0 -39969-3 0  2588
2 67699  97.2851   8.0849 0000960  91.5561 269.6408 15.33449402    13

Traccia STARLINK-36716 in tempo reale con AllMySat

Download on the App Store